Erie, PA

8:26 AM EST on November 23, 2017 (GMT -0500)
Erie International

Weather History for KERI - February, 2013

Change the Weather History Date:

Saturday, February 23, 2013

  Actual Average Record
Temperature  
Mean Temperature 34 °F 30 °F  
Max Temperature 37 °F 37 °F 65 °F (1922)
Min Temperature 30 °F 22 °F -8 °F (2015)
Degree Days  
Heating Degree Days 31 36  
Month to date heating degree days 890 854  
Since 1 July heating degree days 3930 4192  
Cooling Degree Days 0 0  
Month to date cooling degree days 0 0  
Year to date cooling degree days 0 0  
Moisture  
Dew Point 26 °F    
Average Humidity 74    
Maximum Humidity 85    
Minimum Humidity 63    
Precipitation  
Precipitation 0.00 in 0.09 in 0.89 in (1981)
Month to date precipitation 2.14 1.92  
Year to date precipitation 5.46 4.87  
Snow  
Snow 0.00 in 0.60 in - ()
Month to date snowfall 25.2 15.2  
Since 1 July snowfall 77.7 81.0  
Snow Depth T in    
Sea Level Pressure  
Sea Level Pressure 29.93 in    
Wind  
Wind Speed 8 mph (SW)    
Max Wind Speed 16 mph    
Max Gust Speed 21 mph    
Visibility 10 miles    
Events      
T = Trace of Precipitation, MM = Missing Value Source: NWS Daily Summary

Daily Weather History Graph

Daily Weather History Graph

Search for Another Location

Airport or City:

Trip Planner

Search our weather history database for the weather conditions in past years. The results will help you decide how hot, cold, wet, or windy it might be!

Date:

Astronomy

Feb. 23, 2013 Rise Set
Actual Time 7:04 AM EST 6:03 PM EST
Civil Twilight 6:36 AM EST 6:32 PM EST
Nautical Twilight 6:04 AM EST 7:04 PM EST
Astronomical Twilight 5:31 AM EST 7:36 PM EST
Moon 4:11 PM EST 5:27 AM EST
Length of Visible Light 11h 55m
Length of Day
10h 59m
Waxing Gibbous, 95% of the Moon is Illuminated
Feb 23
Waxing Gibbous
Feb 25
Full
Mar 4
Last Quarter
Mar 11
New
Mar 19
First Quarter

Hourly Weather History & Observations

Time (EST) Temp. Windchill Dew Point Humidity Pressure Visibility Wind Dir Wind Speed Gust Speed Precip Events Conditions
12:33 AM 35.6 °F 28.6 °F 30.2 °F 81% 29.95 in 10.0 mi SSE 9.2 mph - N/A   Overcast
12:51 AM 36.0 °F 29.0 °F 30.0 °F 79% 29.98 in 10.0 mi SSE 9.2 mph - N/A   Overcast
1:51 AM 35.1 °F 27.9 °F 30.0 °F 82% 29.97 in 10.0 mi South 9.2 mph - N/A   Overcast
2:51 AM 35.1 °F 27.9 °F 30.0 °F 82% 29.96 in 10.0 mi South 9.2 mph - N/A   Overcast
3:01 AM 35.6 °F 28.0 °F 30.2 °F 81% 29.93 in 10.0 mi SSE 10.4 mph - N/A   Overcast
3:51 AM 35.1 °F 28.6 °F 30.0 °F 82% 29.94 in 10.0 mi South 8.1 mph - N/A   Overcast
4:51 AM 35.1 °F 27.4 °F 30.0 °F 82% 29.94 in 10.0 mi South 10.4 mph - N/A   Overcast
5:51 AM 35.1 °F 27.9 °F 30.0 °F 82% 29.94 in 10.0 mi South 9.2 mph - N/A   Overcast
6:51 AM 35.1 °F 27.4 °F 30.0 °F 82% 29.94 in 10.0 mi South 10.4 mph - N/A   Overcast
7:51 AM 36.0 °F 27.5 °F 30.0 °F 79% 29.94 in 10.0 mi South 12.7 mph - N/A   Overcast
8:51 AM 36.0 °F 29.0 °F 30.0 °F 79% 29.94 in 10.0 mi SSW 9.2 mph - N/A   Overcast
9:51 AM 37.0 °F 29.3 °F 28.9 °F 73% 29.93 in 10.0 mi SW 11.5 mph 18.4 mph N/A   Overcast
10:04 AM 37.4 °F 28.2 °F 28.4 °F 70% 29.91 in 10.0 mi WSW 16.1 mph 20.7 mph N/A   Overcast
10:31 AM 33.8 °F 25.3 °F 28.4 °F 81% 29.92 in 9.0 mi West 11.5 mph - N/A   Overcast
10:51 AM 33.1 °F 26.1 °F 28.9 °F 85% 29.94 in 8.0 mi West 8.1 mph - N/A   Overcast
11:51 AM 32.0 °F 25.6 °F 28.0 °F 85% 29.95 in 8.0 mi West 6.9 mph - N/A   Overcast
12:15 PM 30.2 °F 20.8 °F 26.6 °F 86% 29.92 in 10.0 mi West 11.5 mph - N/A   Overcast
12:51 PM 30.9 °F 22.8 °F 26.1 °F 82% 29.94 in 10.0 mi West 9.2 mph - N/A   Overcast
1:32 PM 30.2 °F 22.6 °F 24.8 °F 80% 29.90 in 10.0 mi West 8.1 mph - N/A   Overcast
1:51 PM 30.9 °F 22.2 °F 23.0 °F 72% 29.92 in 10.0 mi West 10.4 mph 18.4 mph N/A   Overcast
2:51 PM 30.9 °F 21.2 °F 21.9 °F 69% 29.92 in 10.0 mi WSW 12.7 mph - N/A   Overcast
3:51 PM 32.0 °F 24.2 °F 21.0 °F 64% 29.94 in 10.0 mi West 9.2 mph 18.4 mph N/A   Overcast
4:19 PM 30.2 °F 20.8 °F 21.2 °F 69% 29.91 in 10.0 mi West 11.5 mph - N/A   Overcast
4:42 PM 30.2 °F 21.3 °F 21.2 °F 69% 29.90 in 10.0 mi West 10.4 mph - N/A   Overcast
4:51 PM 30.9 °F 24.3 °F 21.9 °F 69% 29.92 in 10.0 mi West 6.9 mph - N/A   Overcast
5:19 PM 30.2 °F 23.4 °F 21.2 °F 69% 29.89 in 10.0 mi West 6.9 mph - N/A   Overcast
5:51 PM 30.0 °F 22.4 °F 21.0 °F 69% 29.93 in 10.0 mi West 8.1 mph - N/A   Overcast
6:51 PM 30.0 °F 25.2 °F 21.9 °F 72% 29.94 in 10.0 mi West 4.6 mph - N/A   Overcast
7:51 PM 30.0 °F 25.2 °F 23.0 °F 75% 29.94 in 10.0 mi West 4.6 mph - N/A   Overcast
8:51 PM 30.0 °F 25.2 °F 21.9 °F 72% 29.94 in 10.0 mi WSW 4.6 mph - N/A   Overcast
9:51 PM 30.0 °F 24.1 °F 21.9 °F 72% 29.93 in 10.0 mi West 5.8 mph - N/A   Overcast
10:51 PM 30.0 °F 24.1 °F 21.9 °F 72% 29.92 in 10.0 mi West 5.8 mph - N/A   Overcast
11:10 PM 30.2 °F 24.3 °F 21.2 °F 69% 29.88 in 10.0 mi West 5.8 mph - N/A   Overcast
11:51 PM 30.0 °F 25.2 °F 21.9 °F 72% 29.91 in 10.0 mi WSW 4.6 mph - N/A   Overcast